Weather History for Du Bois, PA

Change the Weather History Date:

Wednesday, May 1, 2013

  Actual Average Record
Temperature  
Mean Temperature 61 °F 52 °F  
Max Temperature 72 °F 63 °F 85 °F (1970)
Min Temperature 50 °F 41 °F 24 °F (1978)
Degree Days  
Heating Degree Days 4 13  
Month to date heating degree days 4 13  
Since 1 July heating degree days 6293 6526  
Cooling Degree Days 0 0  
Month to date cooling degree days 0 0  
Year to date cooling degree days 1 4  
Growing Degree Days 11 (Base 50)    
Moisture  
Dew Point 38 °F    
Average Humidity 57    
Maximum Humidity 89    
Minimum Humidity 24    
Precipitation  
Precipitation 0.00 in 0.12 in 1.18 in (1989)
Month to date precipitation 0.00 0.12  
Sea Level Pressure  
Sea Level Pressure 30.32 in    
Wind  
Wind Speed 9 mph (SE)    
Max Wind Speed 14 mph    
Max Gust Speed 21 mph    
Visibility 10 miles    
Events      
T = Trace of Precipitation, MM = Missing Value Source: NWS Daily Summary

Daily Weather History Graph

Daily Weather History Graph

Search for Another Location

Airport:

Trip Planner

Search our weather history database for the weather conditions in past years. The results will help you decide how hot, cold, wet, or windy it might be!

Date:

Astronomy

May. 01, 2013 Rise Set
Actual Time 6:12 AM EDT 8:12 PM EDT
Civil Twilight 5:43 AM EDT 8:43 PM EDT
Nautical Twilight 5:06 AM EDT 9:19 PM EDT
Astronomical Twilight 4:26 AM EDT 9:59 PM EDT
Moon 1:21 AM EDT (5/1) 11:49 AM EDT (5/1)
Length of Visible Light 15h 00m
Length of Day
14h 00m
Waning Gibbous, 59% of the Moon is Illuminated
May 1
Waning Gibbous
May 2
Last Quarter
May 9
New
May 18
First Quarter
May 25
Full

Hourly Weather History & Observations

Time (EDT) Temp. Dew Point Humidity Pressure Visibility Wind Dir Wind Speed Gust Speed Precip Events Conditions
1:56 AM 54.0 °F 48.0 °F 80% 30.25 in 10.0 mi SE 8.1 mph - N/A   Clear
2:56 AM 52.0 °F 48.0 °F 86% 30.25 in 10.0 mi ESE 9.2 mph - N/A   Clear
3:56 AM 52.0 °F 46.9 °F 83% 30.27 in 10.0 mi ESE 8.1 mph - N/A   Clear
4:56 AM 52.0 °F 46.0 °F 80% 30.26 in 10.0 mi SE 9.2 mph - N/A   Clear
5:56 AM 51.1 °F 45.0 °F 80% 30.29 in 10.0 mi ESE 8.1 mph - N/A   Clear
6:56 AM 51.1 °F 44.1 °F 77% 30.31 in 10.0 mi ESE 8.1 mph - N/A   Clear
7:56 AM 53.1 °F 44.1 °F 71% 30.34 in 10.0 mi SE 9.2 mph - N/A   Clear
9:56 AM 60.1 °F 39.9 °F 47% 30.34 in 10.0 mi SE 8.1 mph - N/A   Clear
10:56 AM 62.1 °F 41.0 °F 46% 30.35 in 10.0 mi ESE 11.5 mph - N/A   Clear
11:56 AM 64.0 °F 39.0 °F 40% 30.35 in 10.0 mi SE 12.7 mph 18.4 mph N/A   Clear
12:56 PM 66.9 °F 34.0 °F 30% 30.33 in 10.0 mi SSE 9.2 mph - N/A   Clear
2:56 PM 70.0 °F 36.0 °F 29% 30.32 in 10.0 mi SSE 6.9 mph 17.3 mph N/A   Clear
3:56 PM 71.1 °F 34.0 °F 26% 30.30 in 10.0 mi Variable 6.9 mph 16.1 mph N/A   Clear
4:56 PM 71.1 °F 33.1 °F 25% 30.31 in 10.0 mi SE 9.2 mph - N/A   Clear
5:56 PM 71.1 °F 32.0 °F 24% 30.32 in 10.0 mi SE 9.2 mph - N/A   Clear
7:56 PM 66.9 °F 30.0 °F 25% 30.33 in 10.0 mi SE 8.1 mph - N/A   Clear
8:56 PM 63.0 °F 28.9 °F 28% 30.35 in 10.0 mi SE 6.9 mph - N/A   Clear
9:56 PM 61.0 °F 28.0 °F 29% 30.36 in 10.0 mi ESE 9.2 mph - N/A   Clear
10:56 PM 59.0 °F 28.0 °F 31% 30.36 in 10.0 mi ESE 10.4 mph - N/A   Clear
11:56 PM 57.0 °F 28.9 °F 34% 30.35 in 10.0 mi SE 8.1 mph - N/A   Clear